| time (UTC) | temp C | wind direction | speed KPH | gust KPH | rain 1hr cm | rain 24hr cm | rain mn cm | humidity % | barometer mb |
| 20260502232121 | 16 | 0.0 | 0.0 | 0.00 | 0.00 | 0.00 | 43 | 1010.7 | |
| 20260502231059 | 17 | 0.0 | 0.0 | 0.00 | 0.00 | 0.00 | 39 | 1010.8 | |
| 20260502230055 | 17 | 0.0 | 0.0 | 0.00 | 0.00 | 0.00 | 36 | 1010.8 | |
| 20260502225130 | 17 | 0.0 | 0.0 | 0.00 | 0.00 | 0.00 | 37 | 1010.9 | |
| 20260502224056 | 18 | 0.0 | 0.0 | 0.00 | 0.00 | 0.00 | 34 | 1011.0 | |
| 20260502223048 | 18 | 0.0 | 0.0 | 0.00 | 0.00 | 0.00 | 33 | 1011.1 | |
| 20260502222040 | 18 | 0.0 | 0.0 | 0.00 | 0.00 | 0.00 | 34 | 1011.1 | |
| 20260502221042 | 18 | 0.0 | 0.0 | 0.00 | 0.00 | 0.00 | 34 | 1011.2 | |
| 20260502220059 | 18 | 0.0 | 0.0 | 0.00 | 0.00 | 0.00 | 34 | 1011.2 | |
| 20260502215032 | 18 | 0.0 | 0.0 | 0.00 | 0.00 | 0.00 | 34 | 1011.2 | |
| 20260502214040 | 18 | 0.0 | 0.0 | 0.00 | 0.00 | 0.00 | 36 | 1011.3 | |
| 20260502213023 | 16 | 0.0 | 0.0 | 0.00 | 0.00 | 0.00 | 43 | 1011.4 | |
| 20260502212044 | 14 | 0.0 | 0.0 | 0.00 | 0.00 | 0.00 | 49 | 1011.5 | |
| 20260502211208 | 13 | 0.0 | 0.0 | 0.00 | 0.00 | 0.00 | 51 | 1011.6 | |
| 20260502210128 | 13 | 0.0 | 0.0 | 0.00 | 0.00 | 0.00 | 50 | 1011.6 | |
| 20260502205116 | 13 | 0.0 | 0.0 | 0.00 | 0.00 | 0.00 | 50 | 1011.7 | |
| 20260502181136 | 21 | 0.0 | 0.0 | 0.00 | 0.00 | 0.00 | 32 | 1011.9 | |
| 20260502180127 | 21 | 0.0 | 0.0 | 0.00 | 0.00 | 0.00 | 32 | 1012.0 | |
| 20260502170118 | 26 | 0.0 | 0.0 | 0.00 | 0.00 | 0.00 | 24 | 1012.1 | |
| 20260502164044 | 26 | 0.0 | 0.0 | 0.00 | 0.00 | 0.00 | 23 | 1012.2 | |
| 20260502163034 | 26 | 0.0 | 0.0 | 0.00 | 0.00 | 0.00 | 20 | 1012.3 | |
| 20260502162112 | 26 | 0.0 | 0.0 | 0.00 | 0.00 | 0.00 | 21 | 1012.5 | |
| 20260502161031 | 27 | 0.0 | 0.0 | 0.00 | 0.00 | 0.00 | 13 | 1012.6 | |
| 20260502152110 | 27 | 0.0 | 0.0 | 0.00 | 0.00 | 0.00 | 21 | 1013.1 | |
| 20260502151113 | 27 | 0.0 | 0.0 | 0.00 | 0.00 | 0.00 | 13 | 1013.2 | |
| 20260502150113 | 27 | 0.0 | 0.0 | 0.00 | 0.00 | 0.00 | 13 | 1013.3 | |
| 20260502123131 | 27 | 0.0 | 0.0 | 0.00 | 0.00 | 0.00 | 21 | 1014.6 | |
| 20260502122104 | 27 | 0.0 | 0.0 | 0.00 | 0.00 | 0.00 | 20 | 1014.8 | |
| 20260502121114 | 27 | 0.0 | 0.0 | 0.00 | 0.00 | 0.00 | 15 | 1014.9 | |
| 20260502115055 | 27 | 0.0 | 0.0 | 0.00 | 0.00 | 0.00 | 14 | 1015.2 | |
| 20260502114050 | 27 | 0.0 | 0.0 | 0.00 | 0.00 | 0.00 | 13 | 1015.2 | |
| 20260502113046 | 27 | 0.0 | 0.0 | 0.00 | 0.00 | 0.00 | 21 | 1015.3 | |
| 20260502112043 | 27 | 0.0 | 0.0 | 0.00 | 0.00 | 0.00 | 21 | 1015.3 | |
| 20260502111039 | 27 | 0.0 | 0.0 | 0.00 | 0.00 | 0.00 | 21 | 1015.4 | |
| 20260502110037 | 27 | 0.0 | 0.0 | 0.00 | 0.00 | 0.00 | 21 | 1015.5 | |
| 20260502105033 | 26 | 0.0 | 0.0 | 0.00 | 0.00 | 0.00 | 21 | 1015.6 | |
| 20260502104051 | 26 | 0.0 | 0.0 | 0.00 | 0.00 | 0.00 | 23 | 1015.8 | |
| 20260502103026 | 26 | 0.0 | 0.0 | 0.00 | 0.00 | 0.00 | 22 | 1015.7 | |
| 20260502102022 | 26 | 0.0 | 1.6 | 0.00 | 0.00 | 0.00 | 22 | 1016.0 | |
| 20260502101021 | 26 | 0.0 | 0.0 | 0.00 | 0.00 | 0.00 | 23 | 1016.2 | |
| 20260502100136 | 25 | 0.0 | 0.0 | 0.00 | 0.00 | 0.00 | 23 | 1016.2 | |
| 20260502091057 | 25 | 0.0 | 0.0 | 0.00 | 0.00 | 0.00 | 25 | 1016.6 | |
| 20260502071135 | 17 | 0.0 | 0.0 | 0.00 | 0.00 | 0.00 | 45 | 1017.2 | |
| 20260502070112 | 16 | 0.0 | 0.0 | 0.00 | 0.00 | 0.00 | 51 | 1017.2 | |
| 20260502065128 | 16 | 0.0 | 0.0 | 0.00 | 0.00 | 0.00 | 51 | 1017.2 | |
| 20260502064107 | 16 | 0.0 | 0.0 | 0.00 | 0.00 | 0.00 | 52 | 1017.2 | |
| 20260502063113 | 15 | 0.0 | 0.0 | 0.00 | 0.00 | 0.00 | 54 | 1017.4 | |
| 20260502062057 | 15 | 0.0 | 0.0 | 0.00 | 0.00 | 0.00 | 55 | 1017.4 | |
| 20260502061056 | 15 | 0.0 | 0.0 | 0.00 | 0.00 | 0.00 | 52 | 1017.4 | |
| 20260502060133 | 16 | 0.0 | 0.0 | 0.00 | 0.00 | 0.00 | 51 | 1017.4 | |
| 20260502055109 | 16 | 0.0 | 0.0 | 0.00 | 0.00 | 0.00 | 54 | 1017.3 | |
| 20260502054104 | 16 | 0.0 | 0.0 | 0.00 | 0.00 | 0.00 | 57 | 1017.3 | |
| 20260502053039 | 15 | 0.0 | 0.0 | 0.00 | 0.00 | 0.00 | 61 | 1017.3 | |
| 20260502052134 | 15 | 0.0 | 0.0 | 0.00 | 0.00 | 0.00 | 60 | 1017.3 | |
| 20260502051031 | 16 | 0.0 | 0.0 | 0.00 | 0.00 | 0.00 | 62 | 1017.3 | |
| 20260502050030 | 15 | 0.0 | 0.0 | 0.00 | 0.00 | 0.00 | 69 | 1017.3 | |
| 20260502045025 | 13 | 0.0 | 0.0 | 0.00 | 0.00 | 0.00 | 77 | 1017.3 | |
| 20260502044022 | 11 | 0.0 | 0.0 | 0.00 | 0.00 | 0.00 | 87 | 1017.3 | |
| 20260502043017 | 8 | 0.0 | 0.0 | 0.00 | 0.00 | 0.00 | 87 | 1017.4 | |
| 20260502042115 | 6 | 0.0 | 0.0 | 0.00 | 0.00 | 0.00 | 90 | 1017.3 | |
| 20260502041112 | 5 | 0.0 | 0.0 | 0.00 | 0.00 | 0.00 | 89 | 1017.4 | |
| 20260502040110 | 5 | 0.0 | 0.0 | 0.00 | 0.00 | 0.00 | 88 | 1017.3 | |
| 20260502035105 | 5 | 0.0 | 0.0 | 0.00 | 0.00 | 0.00 | 88 | 1017.2 | |
| 20260502034059 | 5 | 0.0 | 0.0 | 0.00 | 0.00 | 0.00 | 87 | 1017.4 | |
| 20260502033058 | 5 | 0.0 | 0.0 | 0.00 | 0.00 | 0.00 | 86 | 1017.4 | |
| 20260502032112 | 5 | 0.0 | 0.0 | 0.00 | 0.00 | 0.00 | 86 | 1017.6 | |
| 20260502031109 | 5 | 0.0 | 0.0 | 0.00 | 0.00 | 0.00 | 86 | 1017.5 | |
| 20260502030046 | 5 | 0.0 | 0.0 | 0.00 | 0.00 | 0.00 | 86 | 1017.5 | |
| 20260502025041 | 5 | 0.0 | 0.0 | 0.00 | 0.00 | 0.00 | 87 | 1017.6 | |
| 20260502024057 | 5 | 0.0 | 0.0 | 0.00 | 0.00 | 0.00 | 87 | 1017.6 | |
| 20260502023034 | 6 | 0.0 | 0.0 | 0.00 | 0.00 | 0.00 | 87 | 1017.6 | |
| 20260502022029 | 6 | 0.0 | 0.0 | 0.00 | 0.00 | 0.00 | 87 | 1017.7 | |
| 20260502021025 | 6 | 0.0 | 0.0 | 0.00 | 0.00 | 0.00 | 87 | 1017.7 | |
| 20260502020021 | 6 | 0.0 | 0.0 | 0.00 | 0.00 | 0.00 | 86 | 1017.9 | |
| 20260502015018 | 6 | 0.0 | 0.0 | 0.00 | 0.00 | 0.00 | 85 | 1017.8 | |
| 20260502014115 | 6 | 0.0 | 0.0 | 0.00 | 0.00 | 0.00 | 84 | 1017.9 | |
| 20260502013113 | 6 | 0.0 | 0.0 | 0.00 | 0.00 | 0.00 | 84 | 1018.0 | |
| 20260502012107 | 6 | 0.0 | 0.0 | 0.00 | 0.00 | 0.00 | 84 | 1018.0 | |
| 20260502011103 | 6 | 0.0 | 0.0 | 0.00 | 0.00 | 0.00 | 83 | 1018.0 | |
| 20260502010100 | 6 | 0.0 | 0.0 | 0.00 | 0.00 | 0.00 | 83 | 1018.0 | |
| 20260502005058 | 6 | 0.0 | 0.0 | 0.00 | 0.00 | 0.00 | 82 | 1018.0 | |
| 20260502004053 | 6 | 0.0 | 0.0 | 0.00 | 0.00 | 0.00 | 82 | 1018.0 | |
| 20260502003050 | 7 | 0.0 | 0.0 | 0.00 | 0.00 | 0.00 | 81 | 1018.1 | |
| 20260502002047 | 7 | 0.0 | 0.0 | 0.00 | 0.00 | 0.00 | 81 | 1018.2 | |
| 20260502001042 | 7 | 0.0 | 0.0 | 0.00 | 0.00 | 0.00 | 76 | 1018.2 | |
| 20260502000101 | 8 | 0.0 | 0.0 | 0.00 | 0.00 | 0.00 | 76 | 1018.3 | |
| 20260501235036 | 8 | 0.0 | 0.0 | 0.00 | 0.00 | 0.00 | 78 | 1018.3 | |
| 20260501234034 | 9 | 0.0 | 0.0 | 0.00 | 0.00 | 0.00 | 80 | 1018.3 | |
| 20260501233028 | 10 | 0.0 | 0.0 | 0.00 | 0.00 | 0.00 | 80 | 1018.3 |